Location: Chmeln�
(49.6483°N, 14.9871°E)
Time: 06:26:21
(UTC+00:00)

SJ 16-02 - Pass Details

Date: 18 September 2020
Orbit: 606 x 616 km, 75.0° (Epoch: 27 October)

Event Time Altitude Azimuth Distance (km) Brightness Sun altitude
Rises 17:58:39 0° 217° (SW) 2,855 5.1 -9.2°
Reaches altitude 10° 18:00:57 10° 223° (SW) 1,955 4.3 -9.6°
Maximum altitude 18:05:09 47° 297° (WNW) 815 2.5 -10.3°
Drops below altitude 10° 18:09:24 10° 12° (NNE) 1,968 4.0 -10.9°
Sets 18:11:43 0° 19° (NNE) 2,877 4.8 -11.3°
